Location: Unspecified
(0.0000°N, 0.0000°E)
Time: 22:31:56
(UTC+00:00)

COSMOS 2391 - Pass Details

Date: 27 June 2024
Orbit: 1465 x 1506 km, 82.5° (Epoch: 21 July)

Event Time Altitude Azimuth Distance (km) Brightness Sun altitude
Rises 21:45:43 0° 4° (N) 4,610 11.3 -49.3°
Reaches altitude 10° 21:48:38 10° 8° (N) 3,637 10.6 -49.9°
Enters shadow 21:49:54 15° 10° (N) 3,228 10.3 -50.1°
